Time,TemperatureF,DewpointF,PressureIn,WindDirection,WindDirectionDegrees,WindSpeedMPH,WindSpeedGustMPH,Humidity,HourlyPrecipIn,Conditions,Clouds,dailyrainin,SolarRadiationWatts/m^2,SoftwareType,DateUTC
2013-07-25 00:01:00,83.7,70.2,29.91,East,91,8.0,18.0,64,0.00,,---,0.00,0.00,VWS V14.01,2013-07-25 05:01:00,
2013-07-25 00:06:00,83.5,70.1,29.91,East,85,6.0,15.0,64,0.00,,---,0.00,0.00,VWS V14.01,2013-07-25 05:06:00,
2013-07-25 00:11:00,83.4,69.9,29.91,East,86,9.0,15.0,64,0.00,,---,0.00,0.00,VWS V14.01,2013-07-25 05:11:00,
2013-07-25 00:16:00,83.3,70.3,29.91,East,84,14.0,15.0,65,0.00,,---,0.00,0.00,VWS V14.01,2013-07-25 05:16:00,
2013-07-25 00:21:00,83.2,70.2,29.91,East,88,5.0,15.0,65,0.00,,---,0.00,0.00,VWS V14.01,2013-07-25 05:21:00,
2013-07-25 00:26:00,83.1,70.1,29.91,East,81,7.0,15.0,65,0.00,,---,0.00,0.00,VWS V14.01,2013-07-25 05:26:00,
2013-07-25 00:31:00,83.0,70.5,29.90,East,88,1.0,15.0,66,0.00,,---,0.00,0.00,VWS V14.01,2013-07-25 05:31:00,
2013-07-25 00:36:00,82.9,70.4,29.91,East,93,0.0,8.0,66,0.00,,---,0.00,0.00,VWS V14.01,2013-07-25 05:36:00,
2013-07-25 00:41:00,82.8,70.3,29.91,East,94,0.0,10.0,66,0.00,,---,0.00,0.00,VWS V14.01,2013-07-25 05:41:00,
2013-07-25 00:46:00,82.7,70.2,29.91,East,91,0.0,10.0,66,0.00,,---,0.00,0.00,VWS V14.01,2013-07-25 05:46:00,
2013-07-25 00:51:00,82.6,70.1,29.91,East,81,1.0,10.0,66,0.00,,---,0.00,0.00,VWS V14.01,2013-07-25 05:51:00,
2013-07-25 00:56:00,82.5,70.0,29.91,East,85,5.0,10.0,66,0.00,,---,0.00,0.00,VWS V14.01,2013-07-25 05:56:00,
2013-07-25 01:01:00,82.4,70.3,29.91,ESE,109,0.0,13.0,67,0.00,,---,0.00,0.00,VWS V14.01,2013-07-25 06:01:00,
2013-07-25 01:06:00,82.2,70.2,29.91,East,93,7.0,13.0,67,0.00,,---,0.00,0.00,VWS V14.01,2013-07-25 06:06:00,
2013-07-25 01:11:00,82.1,70.5,29.90,East,87,0.0,14.0,68,0.00,,---,0.00,0.00,VWS V14.01,2013-07-25 06:11:00,
2013-07-25 01:16:00,81.9,70.7,29.90,East,101,2.0,14.0,69,0.00,,---,0.00,0.00,VWS V14.01,2013-07-25 06:16:00,
2013-07-25 01:21:00,81.4,71.1,29.90,East,85,0.0,14.0,71,0.00,,---,0.00,0.00,VWS V14.01,2013-07-25 06:21:00,
2013-07-25 01:26:00,80.4,71.0,29.90,East,81,0.0,14.0,73,0.01,,---,0.01,0.00,VWS V14.01,2013-07-25 06:26:00,
2013-07-25 01:31:00,79.6,71.0,29.90,East,81,0.0,14.0,75,0.01,,---,0.01,0.00,VWS V14.01,2013-07-25 06:31:00,
2013-07-25 01:36:00,79.0,70.8,29.90,East,84,0.0,0.0,76,0.02,,---,0.02,0.00,VWS V14.01,2013-07-25 06:36:00,
2013-07-25 01:41:00,78.6,70.8,29.90,East,81,3.0,11.0,77,0.02,,---,0.02,0.00,VWS V14.01,2013-07-25 06:41:00,
2013-07-25 01:46:00,78.6,70.4,29.90,East,85,0.0,11.0,76,0.02,,---,0.02,0.00,VWS V14.01,2013-07-25 06:46:00,
2013-07-25 01:51:00,78.7,70.5,29.90,East,85,0.0,11.0,76,0.02,,---,0.02,0.00,VWS V14.01,2013-07-25 06:51:00,
2013-07-25 01:56:00,78.7,70.5,29.91,East,85,0.0,11.0,76,0.02,,---,0.02,0.00,VWS V14.01,2013-07-25 06:56:00,
2013-07-25 02:01:00,78.8,70.6,29.91,East,85,0.0,11.0,76,0.02,,---,0.02,0.00,VWS V14.01,2013-07-25 07:01:00,
2013-07-25 02:06:00,78.8,70.6,29.90,East,86,0.0,6.0,76,0.02,,---,0.02,0.00,VWS V14.01,2013-07-25 07:06:00,
2013-07-25 02:11:00,78.8,70.6,29.91,East,86,0.0,7.0,76,0.02,,---,0.02,0.00,VWS V14.01,2013-07-25 07:11:00,
2013-07-25 02:16:00,78.9,70.3,29.91,East,86,0.0,7.0,75,0.02,,---,0.02,0.00,VWS V14.01,2013-07-25 07:16:00,
2013-07-25 02:21:00,78.9,70.3,29.91,East,84,0.0,8.0,75,0.02,,---,0.02,0.00,VWS V14.01,2013-07-25 07:21:00,
2013-07-25 02:26:00,78.9,70.3,29.91,East,84,0.0,8.0,75,0.02,,---,0.02,0.00,VWS V14.01,2013-07-25 07:26:00,
2013-07-25 02:31:00,78.9,70.3,29.90,East,85,0.0,8.0,75,0.02,,---,0.02,0.00,VWS V14.01,2013-07-25 07:31:00,
2013-07-25 02:36:00,78.9,70.3,29.91,East,85,0.0,3.0,75,0.01,,---,0.02,0.00,VWS V14.01,2013-07-25 07:36:00,
2013-07-25 02:41:00,78.9,70.3,29.91,East,85,0.0,3.0,75,0.01,,---,0.02,0.00,VWS V14.01,2013-07-25 07:41:00,
2013-07-25 02:46:00,78.9,70.3,29.91,East,85,0.0,7.0,75,0.01,,---,0.02,0.00,VWS V14.01,2013-07-25 07:46:00,
2013-07-25 02:51:00,78.9,69.9,29.91,East,85,0.0,7.0,74,0.01,,---,0.02,0.00,VWS V14.01,2013-07-25 07:51:00,
2013-07-25 02:56:00,79.0,70.0,29.91,East,85,0.0,7.0,74,0.01,,---,0.02,0.00,VWS V14.01,2013-07-25 07:56:00,
2013-07-25 03:01:00,79.0,70.0,29.91,East,84,1.0,8.0,74,0.01,,---,0.02,0.00,VWS V14.01,2013-07-25 08:01:00,
2013-07-25 03:06:00,79.1,70.1,29.91,East,84,0.0,8.0,74,0.00,,---,0.02,0.00,VWS V14.01,2013-07-25 08:06:00,
2013-07-25 03:11:00,79.0,69.6,29.91,East,85,0.0,8.0,73,0.00,,---,0.02,0.00,VWS V14.01,2013-07-25 08:11:00,
2013-07-25 03:16:00,79.0,70.0,29.91,East,84,0.0,8.0,74,0.00,,---,0.02,0.00,VWS V14.01,2013-07-25 08:16:00,
2013-07-25 03:21:00,78.9,69.9,29.91,East,84,0.0,8.0,74,0.00,,---,0.02,0.00,VWS V14.01,2013-07-25 08:21:00,
2013-07-25 03:26:00,78.8,69.8,29.91,East,84,0.0,8.0,74,0.00,,---,0.02,0.00,VWS V14.01,2013-07-25 08:26:00,
2013-07-25 03:31:00,78.7,69.7,29.91,East,84,0.0,8.0,74,0.00,,---,0.02,0.00,VWS V14.01,2013-07-25 08:31:00,
2013-07-25 03:36:00,78.6,69.6,29.91,East,84,0.0,1.0,74,0.00,,---,0.02,0.00,VWS V14.01,2013-07-25 08:36:00,
2013-07-25 03:41:00,78.5,69.9,29.92,East,84,0.0,2.0,75,0.00,,---,0.02,0.00,VWS V14.01,2013-07-25 08:41:00,
2013-07-25 03:45:00,78.4,69.8,29.92,East,84,0.0,2.0,75,0.00,,---,0.02,0.00,VWS V14.01,2013-07-25 08:45:00,
2013-07-25 03:50:00,78.4,69.8,29.91,East,84,0.0,2.0,75,0.00,,---,0.02,0.00,VWS V14.01,2013-07-25 08:50:00,
2013-07-25 03:55:00,78.4,69.8,29.92,East,84,2.0,5.0,75,0.00,,---,0.02,0.00,VWS V14.01,2013-07-25 08:55:00,
2013-07-25 04:00:00,78.4,69.8,29.92,East,84,0.0,5.0,75,0.00,,---,0.02,0.00,VWS V14.01,2013-07-25 09:00:00,
2013-07-25 04:05:00,78.3,69.7,29.92,East,84,0.0,1.0,75,0.00,,---,0.02,0.00,VWS V14.01,2013-07-25 09:05:00,
2013-07-25 04:10:00,78.3,69.7,29.92,East,84,0.0,1.0,75,0.00,,---,0.02,0.00,VWS V14.01,2013-07-25 09:10:00,
2013-07-25 04:15:00,78.3,70.1,29.92,East,84,0.0,1.0,76,0.00,,---,0.02,0.00,VWS V14.01,2013-07-25 09:15:00,
2013-07-25 04:20:00,78.2,70.0,29.92,East,84,0.0,1.0,76,0.00,,---,0.02,0.00,VWS V14.01,2013-07-25 09:20:00,
2013-07-25 04:25:00,78.2,70.0,29.92,East,84,0.0,1.0,76,0.00,,---,0.02,0.00,VWS V14.01,2013-07-25 09:25:00,
2013-07-25 04:30:00,78.1,69.9,29.92,East,84,0.0,1.0,76,0.00,,---,0.02,0.00,VWS V14.01,2013-07-25 09:30:00,
2013-07-25 04:35:00,78.0,69.8,29.92,East,84,0.0,1.0,76,0.00,,---,0.02,0.00,VWS V14.01,2013-07-25 09:35:00,
2013-07-25 04:40:00,77.9,69.7,29.92,East,84,1.0,3.0,76,0.00,,---,0.02,0.00,VWS V14.01,2013-07-25 09:40:00,
2013-07-25 04:45:00,77.8,69.6,29.92,East,84,0.0,3.0,76,0.00,,---,0.02,0.00,VWS V14.01,2013-07-25 09:45:00,
2013-07-25 04:50:00,77.7,69.9,29.92,East,84,0.0,3.0,77,0.00,,---,0.02,0.00,VWS V14.01,2013-07-25 09:50:00,
2013-07-25 04:55:00,77.6,69.8,29.92,East,84,0.0,3.0,77,0.00,,---,0.02,0.00,VWS V14.01,2013-07-25 09:55:00,
2013-07-25 05:00:00,77.6,69.8,29.93,East,84,0.0,3.0,77,0.00,,---,0.02,0.00,VWS V14.01,2013-07-25 10:00:00,
2013-07-25 05:05:00,77.5,69.7,29.93,East,84,0.0,1.0,77,0.00,,---,0.02,0.00,VWS V14.01,2013-07-25 10:05:00,
2013-07-25 05:10:00,77.3,69.9,29.93,East,84,0.0,3.0,78,0.00,,---,0.02,0.00,VWS V14.01,2013-07-25 10:10:00,
2013-07-25 05:15:00,77.3,69.9,29.93,East,84,0.0,3.0,78,0.00,,---,0.02,0.00,VWS V14.01,2013-07-25 10:15:00,
2013-07-25 05:20:00,77.2,69.4,29.93,East,84,0.0,6.0,77,0.00,,---,0.02,0.00,VWS V14.01,2013-07-25 10:20:00,
2013-07-25 05:25:00,77.1,69.7,29.93,East,84,0.0,6.0,78,0.00,,---,0.02,0.00,VWS V14.01,2013-07-25 10:25:00,
2013-07-25 05:30:00,77.0,69.6,29.93,East,84,0.0,6.0,78,0.00,,---,0.02,0.00,VWS V14.01,2013-07-25 10:30:00,
2013-07-25 05:35:00,77.0,69.6,29.94,East,84,0.0,2.0,78,0.00,,---,0.02,0.00,VWS V14.01,2013-07-25 10:35:00,
2013-07-25 05:40:00,77.0,69.6,29.96,WNW,298,2.0,8.0,78,0.00,,---,0.02,0.00,VWS V14.01,2013-07-25 10:40:00,
2013-07-25 05:45:00,77.1,69.7,29.96,NW,319,8.0,12.0,78,0.00,,---,0.02,0.00,VWS V14.01,2013-07-25 10:45:00,
2013-07-25 05:50:00,77.4,69.6,29.97,NW,319,5.0,16.0,77,0.00,,---,0.02,0.00,VWS V14.01,2013-07-25 10:50:00,
2013-07-25 05:55:00,77.6,69.8,29.96,NNW,345,0.0,16.0,77,0.00,,---,0.02,0.00,VWS V14.01,2013-07-25 10:55:00,
2013-07-25 06:00:00,77.6,69.8,29.97,NNW,344,0.0,16.0,77,0.00,,---,0.02,0.00,VWS V14.01,2013-07-25 11:00:00,
2013-07-25 06:05:00,77.6,69.4,29.97,North,5,6.0,11.0,76,0.00,,---,0.02,0.00,VWS V14.01,2013-07-25 11:05:00,
2013-07-25 06:10:00,77.8,69.2,29.97,North,355,5.0,11.0,75,0.00,,---,0.02,0.00,VWS V14.01,2013-07-25 11:10:00,
2013-07-25 06:15:00,77.8,69.2,29.97,North,360,6.0,11.0,75,0.00,,---,0.02,0.00,VWS V14.01,2013-07-25 11:15:00,
2013-07-25 06:20:00,77.8,69.6,29.97,North,5,7.0,11.0,76,0.00,,---,0.02,0.00,VWS V14.01,2013-07-25 11:20:00,
2013-07-25 06:25:00,77.8,69.6,29.97,North,355,8.0,15.0,76,0.00,,---,0.02,0.00,VWS V14.01,2013-07-25 11:25:00,
2013-07-25 06:30:00,77.8,69.6,29.97,NNW,333,8.0,15.0,76,0.00,,---,0.02,0.00,VWS V14.01,2013-07-25 11:30:00,
2013-07-25 06:35:00,77.7,69.5,29.97,North,349,9.0,15.0,76,0.00,,---,0.02,0.00,VWS V14.01,2013-07-25 11:35:00,
2013-07-25 06:40:00,77.4,69.2,29.97,North,5,12.0,15.0,76,0.00,,---,0.02,0.00,VWS V14.01,2013-07-25 11:40:00,
2013-07-25 06:45:00,76.5,68.4,29.97,NNE,12,8.0,17.0,76,0.00,,---,0.02,0.00,VWS V14.01,2013-07-25 11:45:00,
2013-07-25 06:50:00,75.3,67.6,29.96,NNW,340,8.0,17.0,77,0.00,,---,0.02,0.00,VWS V14.01,2013-07-25 11:50:00,
2013-07-25 06:55:00,74.5,67.6,29.95,NNE,29,13.0,18.0,79,0.00,,---,0.02,0.00,VWS V14.01,2013-07-25 11:55:00,
2013-07-25 07:00:00,74.1,67.2,29.94,NE,42,7.0,19.0,79,0.00,,---,0.02,5.00,VWS V14.01,2013-07-25 12:00:00,
2013-07-25 07:05:00,74.0,67.4,29.94,NNE,25,5.0,14.0,80,0.00,,---,0.02,11.00,VWS V14.01,2013-07-25 12:05:00,
2013-07-25 07:10:00,73.9,67.3,29.95,NNE,29,4.0,14.0,80,0.00,,---,0.02,11.00,VWS V14.01,2013-07-25 12:10:00,
2013-07-25 07:15:00,74.0,67.4,29.95,NNE,21,3.0,14.0,80,0.00,,---,0.02,16.00,VWS V14.01,2013-07-25 12:15:00,
2013-07-25 07:20:00,74.1,67.5,29.95,NNE,16,6.0,14.0,80,0.00,,---,0.02,23.00,VWS V14.01,2013-07-25 12:20:00,
2013-07-25 07:25:00,74.2,67.6,29.95,NNE,21,4.0,14.0,80,0.00,,---,0.02,35.00,VWS V14.01,2013-07-25 12:25:00,
2013-07-25 07:30:00,74.2,67.6,29.95,NNE,17,7.0,14.0,80,0.00,,---,0.02,42.00,VWS V14.01,2013-07-25 12:30:00,
2013-07-25 07:35:00,74.2,68.0,29.96,NNE,17,0.0,8.0,81,0.00,,---,0.02,40.00,VWS V14.01,2013-07-25 12:35:00,
2013-07-25 07:40:00,74.2,68.0,29.96,NNE,20,0.0,8.0,81,0.00,,---,0.02,42.00,VWS V14.01,2013-07-25 12:40:00,
2013-07-25 07:45:00,74.3,68.1,29.96,NNE,26,5.0,9.0,81,0.00,,---,0.02,40.00,VWS V14.01,2013-07-25 12:45:00,
2013-07-25 07:50:00,74.5,67.9,29.96,NNE,27,0.0,9.0,80,0.00,,---,0.02,33.00,VWS V14.01,2013-07-25 12:50:00,
2013-07-25 07:55:00,74.7,68.1,29.97,NNE,24,0.0,9.0,80,0.00,,---,0.02,23.00,VWS V14.01,2013-07-25 12:55:00,
2013-07-25 08:00:00,75.0,67.7,29.98,NNE,23,0.0,9.0,78,0.00,,---,0.02,18.00,VWS V14.01,2013-07-25 13:00:00,
2013-07-25 08:05:00,75.1,68.2,29.98,North,5,8.0,8.0,79,0.00,,---,0.02,7.00,VWS V14.01,2013-07-25 13:05:00,
2013-07-25 08:10:00,75.0,68.1,29.99,NNW,336,5.0,8.0,79,0.00,,---,0.02,0.00,VWS V14.01,2013-07-25 13:10:00,
2013-07-25 08:15:00,74.8,68.2,30.00,WNW,296,9.0,12.0,80,0.00,,---,0.02,0.00,VWS V14.01,2013-07-25 13:15:00,
2013-07-25 08:20:00,74.3,68.1,30.01,WNW,300,11.0,15.0,81,0.00,,---,0.02,0.00,VWS V14.01,2013-07-25 13:20:00,
2013-07-25 08:25:00,73.8,68.0,30.02,WNW,289,3.0,15.0,82,0.00,,---,0.02,0.00,VWS V14.01,2013-07-25 13:25:00,
2013-07-25 08:30:00,73.5,67.7,30.02,WNW,288,0.0,15.0,82,0.00,,---,0.02,0.00,VWS V14.01,2013-07-25 13:30:00,
2013-07-25 08:35:00,73.1,67.6,30.02,WSW,244,7.0,9.0,83,0.01,,---,0.03,0.00,VWS V14.01,2013-07-25 13:35:00,
2013-07-25 08:40:00,72.9,67.8,30.02,WSW,242,9.0,9.0,84,0.01,,---,0.03,0.00,VWS V14.01,2013-07-25 13:40:00,
2013-07-25 08:45:00,72.5,67.4,30.03,WNW,296,6.0,13.0,84,0.02,,---,0.04,0.00,VWS V14.01,2013-07-25 13:45:00,
2013-07-25 08:50:00,72.1,67.0,30.02,NW,317,4.0,13.0,84,0.05,,---,0.07,0.00,VWS V14.01,2013-07-25 13:50:00,
2013-07-25 08:55:00,72.0,67.2,30.02,NW,317,0.0,13.0,85,0.08,,---,0.10,0.00,VWS V14.01,2013-07-25 13:55:00,
2013-07-25 09:00:00,71.5,66.8,30.01,NNE,14,5.0,13.0,85,0.14,,---,0.16,0.00,VWS V14.01,2013-07-25 14:00:00,
2013-07-25 09:05:00,71.1,66.7,30.01,NNE,25,2.0,7.0,86,0.21,,---,0.23,0.00,VWS V14.01,2013-07-25 14:05:00,
2013-07-25 09:10:00,71.1,67.0,30.00,NNE,25,0.0,7.0,87,0.23,,---,0.25,5.00,VWS V14.01,2013-07-25 14:10:00,
2013-07-25 09:15:00,71.0,67.3,30.00,NNE,26,0.0,7.0,88,0.24,,---,0.26,5.00,VWS V14.01,2013-07-25 14:15:00,
2013-07-25 09:20:00,71.1,67.4,30.00,NNE,26,0.0,7.0,88,0.25,,---,0.27,7.00,VWS V14.01,2013-07-25 14:20:00,
2013-07-25 09:25:00,71.2,67.5,30.00,NNE,26,0.0,7.0,88,0.26,,---,0.28,9.00,VWS V14.01,2013-07-25 14:25:00,
2013-07-25 09:30:00,71.2,67.5,29.99,NE,40,0.0,7.0,88,0.27,,---,0.29,12.00,VWS V14.01,2013-07-25 14:30:00,
2013-07-25 09:35:00,71.0,67.3,29.98,ENE,65,0.0,9.0,88,0.28,,---,0.30,16.00,VWS V14.01,2013-07-25 14:35:00,
2013-07-25 09:40:00,70.9,67.2,29.98,ENE,64,0.0,9.0,88,0.29,,---,0.31,25.00,VWS V14.01,2013-07-25 14:40:00,
2013-07-25 09:45:00,70.8,67.1,29.99,ENE,65,0.0,9.0,88,0.29,,---,0.31,35.00,VWS V14.01,2013-07-25 14:45:00,
2013-07-25 09:50:00,70.8,67.1,29.99,ENE,64,0.0,9.0,88,0.30,,---,0.32,49.00,VWS V14.01,2013-07-25 14:50:00,
2013-07-25 09:55:00,70.9,67.5,29.99,ENE,64,0.0,9.0,89,0.30,,---,0.32,51.00,VWS V14.01,2013-07-25 14:55:00,
2013-07-25 10:00:00,71.0,67.6,29.99,ENE,64,0.0,9.0,89,0.30,,---,0.32,67.00,VWS V14.01,2013-07-25 15:00:00,
2013-07-25 10:05:00,71.0,67.6,29.99,ENE,64,0.0,0.0,89,0.15,,---,0.32,98.00,VWS V14.01,2013-07-25 15:05:00,
2013-07-25 10:10:00,71.2,67.8,29.99,ENE,64,0.0,0.0,89,0.15,,---,0.32,127.00,VWS V14.01,2013-07-25 15:10:00,
2013-07-25 10:15:00,71.4,68.0,29.99,ENE,64,0.0,0.0,89,0.15,,---,0.32,153.00,VWS V14.01,2013-07-25 15:15:00,
2013-07-25 10:20:00,71.8,68.4,29.99,ENE,64,0.0,0.0,89,0.15,,---,0.32,192.00,VWS V14.01,2013-07-25 15:20:00,
2013-07-25 10:25:00,72.0,68.9,30.00,ENE,64,0.0,0.0,90,0.15,,---,0.32,225.00,VWS V14.01,2013-07-25 15:25:00,
2013-07-25 10:30:00,72.5,69.4,30.00,ENE,65,0.0,0.0,90,0.15,,---,0.32,251.00,VWS V14.01,2013-07-25 15:30:00,
2013-07-25 10:35:00,72.9,69.5,30.00,ENE,65,0.0,3.0,89,0.03,,---,0.32,271.00,VWS V14.01,2013-07-25 15:35:00,
2013-07-25 10:40:00,73.1,69.7,30.01,ESE,107,0.0,6.0,89,0.03,,---,0.32,288.00,VWS V14.01,2013-07-25 15:40:00,
2013-07-25 10:45:00,73.7,70.3,30.01,SSE,147,3.0,9.0,89,0.03,,---,0.32,287.00,VWS V14.01,2013-07-25 15:45:00,
2013-07-25 10:50:00,74.0,70.2,30.00,SSE,153,6.0,9.0,88,0.03,,---,0.32,260.00,VWS V14.01,2013-07-25 15:50:00,
2013-07-25 10:55:00,74.1,70.3,30.00,SSE,154,3.0,9.0,88,0.03,,---,0.32,237.00,VWS V14.01,2013-07-25 15:55:00,
2013-07-25 11:00:00,74.3,70.5,30.00,SSE,161,0.0,9.0,88,0.03,,---,0.32,271.00,VWS V14.01,2013-07-25 16:00:00,
2013-07-25 11:05:00,74.6,70.8,30.00,SSE,157,11.0,11.0,88,0.00,,---,0.32,352.00,VWS V14.01,2013-07-25 16:05:00,
2013-07-25 11:10:00,75.0,71.2,30.00,SE,146,7.0,13.0,88,0.00,,---,0.32,383.00,VWS V14.01,2013-07-25 16:10:00,
2013-07-25 11:15:00,75.4,71.3,30.00,SE,146,0.0,13.0,87,0.00,,---,0.32,355.00,VWS V14.01,2013-07-25 16:15:00,
2013-07-25 11:20:00,75.8,71.3,30.00,SSE,148,7.0,13.0,86,0.00,,---,0.32,364.00,VWS V14.01,2013-07-25 16:20:00,
2013-07-25 11:25:00,76.1,71.3,30.00,SSE,148,0.0,13.0,85,0.00,,---,0.32,325.00,VWS V14.01,2013-07-25 16:25:00,
2013-07-25 11:30:00,76.3,71.5,30.00,SSE,147,0.0,13.0,85,0.00,,---,0.32,299.00,VWS V14.01,2013-07-25 16:30:00,
2013-07-25 11:35:00,76.2,71.4,30.00,ESE,119,2.0,5.0,85,0.00,,---,0.32,325.00,VWS V14.01,2013-07-25 16:35:00,
2013-07-25 11:40:00,76.1,71.3,30.00,East,95,0.0,10.0,85,0.00,,---,0.32,330.00,VWS V14.01,2013-07-25 16:40:00,
2013-07-25 11:45:00,76.5,71.7,30.00,East,95,0.0,10.0,85,0.00,,---,0.32,339.00,VWS V14.01,2013-07-25 16:45:00,
2013-07-25 11:50:00,76.8,71.6,30.00,East,95,0.0,10.0,84,0.00,,---,0.32,345.00,VWS V14.01,2013-07-25 16:50:00,
2013-07-25 11:55:00,76.9,71.7,30.00,East,95,0.0,10.0,84,0.00,,---,0.32,385.00,VWS V14.01,2013-07-25 16:55:00,
2013-07-25 12:00:00,77.4,71.8,30.00,East,96,0.0,10.0,83,0.00,,---,0.32,357.00,VWS V14.01,2013-07-25 17:00:00,
2013-07-25 12:05:00,77.8,71.9,29.99,East,96,0.0,2.0,82,0.00,,---,0.32,387.00,VWS V14.01,2013-07-25 17:05:00,
2013-07-25 12:10:00,78.3,72.4,29.99,East,96,0.0,3.0,82,0.00,,---,0.32,383.00,VWS V14.01,2013-07-25 17:10:00,
2013-07-25 12:15:00,78.5,72.2,29.99,East,96,0.0,5.0,81,0.00,,---,0.32,482.00,VWS V14.01,2013-07-25 17:15:00,
2013-07-25 12:20:00,79.1,72.8,29.99,East,96,0.0,7.0,81,0.00,,---,0.32,487.00,VWS V14.01,2013-07-25 17:20:00,
2013-07-25 12:25:00,79.6,72.5,29.99,East,96,0.0,7.0,79,0.00,,---,0.32,624.00,VWS V14.01,2013-07-25 17:25:00,
2013-07-25 12:30:00,80.0,72.9,29.99,East,96,5.0,7.0,79,0.00,,---,0.32,517.00,VWS V14.01,2013-07-25 17:30:00,
2013-07-25 12:35:00,79.8,72.3,29.99,East,95,0.0,5.0,78,0.00,,---,0.32,369.00,VWS V14.01,2013-07-25 17:35:00,
2013-07-25 12:40:00,79.6,72.5,30.01,East,95,0.0,5.0,79,0.00,,---,0.32,239.00,VWS V14.01,2013-07-25 17:40:00,
2013-07-25 12:45:00,79.6,72.1,30.01,East,91,3.0,7.0,78,0.00,,---,0.32,197.00,VWS V14.01,2013-07-25 17:45:00,
2013-07-25 12:50:00,79.3,72.2,30.02,North,5,6.0,10.0,79,0.00,,---,0.32,98.00,VWS V14.01,2013-07-25 17:50:00,
2013-07-25 12:55:00,79.0,71.9,30.02,NNE,14,4.0,10.0,79,0.00,,---,0.32,98.00,VWS V14.01,2013-07-25 17:55:00,
2013-07-25 13:00:00,78.7,72.0,30.01,North,11,6.0,11.0,80,0.00,,---,0.32,295.00,VWS V14.01,2013-07-25 18:00:00,
2013-07-25 13:05:00,78.6,71.6,30.01,NE,38,0.0,10.0,79,0.00,,---,0.32,403.00,VWS V14.01,2013-07-25 18:05:00,
2013-07-25 13:10:00,78.8,71.7,30.01,NNE,30,3.0,12.0,79,0.00,,---,0.32,397.00,VWS V14.01,2013-07-25 18:10:00,
2013-07-25 13:15:00,78.8,71.7,30.01,NNE,33,5.0,14.0,79,0.00,,---,0.32,367.00,VWS V14.01,2013-07-25 18:15:00,
2013-07-25 13:20:00,78.9,71.8,30.01,NE,56,8.0,14.0,79,0.00,,---,0.32,390.00,VWS V14.01,2013-07-25 18:20:00,
2013-07-25 13:25:00,78.9,71.8,30.01,NE,43,3.0,14.0,79,0.00,,---,0.32,388.00,VWS V14.01,2013-07-25 18:25:00,
2013-07-25 13:30:00,78.9,71.8,30.01,NE,36,3.0,14.0,79,0.00,,---,0.32,452.00,VWS V14.01,2013-07-25 18:30:00,
2013-07-25 13:35:00,79.1,71.7,30.01,NE,38,5.0,12.0,78,0.00,,---,0.32,543.00,VWS V14.01,2013-07-25 18:35:00,
2013-07-25 13:40:00,79.2,71.4,30.01,NE,48,8.0,12.0,77,0.00,,---,0.32,636.00,VWS V14.01,2013-07-25 18:40:00,
2013-07-25 13:45:00,79.4,71.6,30.01,NE,54,6.0,12.0,77,0.00,,---,0.32,513.00,VWS V14.01,2013-07-25 18:45:00,
2013-07-25 13:50:00,79.5,71.3,30.00,ENE,61,7.0,12.0,76,0.00,,---,0.32,480.00,VWS V14.01,2013-07-25 18:50:00,
2013-07-25 13:55:00,79.5,71.3,29.99,NE,52,0.0,15.0,76,0.00,,---,0.32,434.00,VWS V14.01,2013-07-25 18:55:00,
2013-07-25 14:00:00,79.4,71.6,29.99,NE,37,5.0,15.0,77,0.00,,---,0.32,438.00,VWS V14.01,2013-07-25 19:00:00,
2013-07-25 14:05:00,79.5,71.3,30.00,NE,52,2.0,11.0,76,0.00,,---,0.32,504.00,VWS V14.01,2013-07-25 19:05:00,
2013-07-25 14:10:00,79.8,71.2,29.99,NE,42,6.0,11.0,75,0.00,,---,0.32,538.00,VWS V14.01,2013-07-25 19:10:00,
2013-07-25 14:15:00,80.3,71.7,29.99,NE,46,4.0,11.0,75,0.00,,---,0.32,512.00,VWS V14.01,2013-07-25 19:15:00,
2013-07-25 14:20:00,80.4,71.4,29.99,NE,36,11.0,11.0,74,0.00,,---,0.32,499.00,VWS V14.01,2013-07-25 19:20:00,
2013-07-25 14:25:00,80.5,71.1,29.98,NE,49,8.0,14.0,73,0.00,,---,0.32,533.00,VWS V14.01,2013-07-25 19:25:00,
2013-07-25 14:30:00,80.7,71.2,29.98,ENE,60,4.0,14.0,73,0.00,,---,0.32,522.00,VWS V14.01,2013-07-25 19:30:00,
2013-07-25 14:35:00,80.9,71.0,29.98,NE,36,6.0,13.0,72,0.00,,---,0.32,606.00,VWS V14.01,2013-07-25 19:35:00,
2013-07-25 14:40:00,81.1,71.6,29.97,ENE,65,7.0,13.0,73,0.00,,---,0.32,810.00,VWS V14.01,2013-07-25 19:40:00,
2013-07-25 14:45:00,81.6,72.1,29.97,ENE,59,7.0,13.0,73,0.00,,---,0.32,891.00,VWS V14.01,2013-07-25 19:45:00,
2013-07-25 14:50:00,81.9,72.0,29.97,ENE,72,3.0,13.0,72,0.00,,---,0.32,944.00,VWS V14.01,2013-07-25 19:50:00,
2013-07-25 14:55:00,82.3,71.5,29.97,NE,36,6.0,13.0,70,0.00,,---,0.32,1014.00,VWS V14.01,2013-07-25 19:55:00,
2013-07-25 15:00:00,82.2,71.0,29.96,ENE,59,5.0,13.0,69,0.00,,---,0.32,956.00,VWS V14.01,2013-07-25 20:00:00,
2013-07-25 15:05:00,82.5,71.7,29.96,ENE,61,8.0,12.0,70,0.00,,---,0.32,489.00,VWS V14.01,2013-07-25 20:05:00,
2013-07-25 15:10:00,82.3,71.5,29.96,NE,51,5.0,15.0,70,0.00,,---,0.32,791.00,VWS V14.01,2013-07-25 20:10:00,
2013-07-25 15:15:00,82.7,71.9,29.96,NE,53,8.0,15.0,70,0.00,,---,0.32,849.00,VWS V14.01,2013-07-25 20:15:00,
2013-07-25 15:20:00,82.8,71.6,29.96,East,82,9.0,15.0,69,0.00,,---,0.32,464.00,VWS V14.01,2013-07-25 20:20:00,
2013-07-25 15:25:00,82.6,71.4,29.96,East,94,0.0,15.0,69,0.00,,---,0.32,489.00,VWS V14.01,2013-07-25 20:25:00,
2013-07-25 15:30:00,82.4,71.6,29.96,ENE,74,0.0,15.0,70,0.00,,---,0.32,526.00,VWS V14.01,2013-07-25 20:30:00,
2013-07-25 15:35:00,82.8,72.4,29.96,ENE,75,0.0,9.0,71,0.00,,---,0.32,708.00,VWS V14.01,2013-07-25 20:35:00,
2013-07-25 15:40:00,83.3,72.1,29.96,East,92,9.0,13.0,69,0.00,,---,0.32,664.00,VWS V14.01,2013-07-25 20:40:00,
2013-07-25 15:45:00,83.4,72.2,29.96,ENE,73,12.0,13.0,69,0.00,,---,0.32,853.00,VWS V14.01,2013-07-25 20:45:00,
2013-07-25 15:50:00,83.3,71.6,29.96,ENE,75,0.0,13.0,68,0.00,,---,0.32,861.00,VWS V14.01,2013-07-25 20:50:00,
2013-07-25 15:55:00,83.4,72.2,29.96,ENE,71,7.0,13.0,69,0.00,,---,0.32,935.00,VWS V14.01,2013-07-25 20:55:00,
2013-07-25 16:00:00,83.8,71.7,29.96,ENE,69,9.0,14.0,67,0.00,,---,0.32,963.00,VWS V14.01,2013-07-25 21:00:00,
2013-07-25 16:05:00,83.6,71.9,29.95,ENE,59,10.0,16.0,68,0.00,,---,0.32,1000.00,VWS V14.01,2013-07-25 21:05:00,
2013-07-25 16:10:00,83.5,71.8,29.96,ENE,74,0.0,16.0,68,0.00,,---,0.32,548.00,VWS V14.01,2013-07-25 21:10:00,
2013-07-25 16:15:00,83.5,71.4,29.95,East,85,0.0,16.0,67,0.00,,---,0.32,443.00,VWS V14.01,2013-07-25 21:15:00,
2013-07-25 16:20:00,83.4,71.3,29.95,East,89,0.0,16.0,67,0.00,,---,0.32,438.00,VWS V14.01,2013-07-25 21:20:00,
2013-07-25 16:25:00,83.6,72.4,29.95,East,92,0.0,16.0,69,0.00,,---,0.32,448.00,VWS V14.01,2013-07-25 21:25:00,
2013-07-25 16:30:00,83.6,71.9,29.95,ENE,78,0.0,16.0,68,0.00,,---,0.32,578.00,VWS V14.01,2013-07-25 21:30:00,
2013-07-25 16:35:00,83.9,72.2,29.95,ENE,76,1.0,11.0,68,0.00,,---,0.32,642.00,VWS V14.01,2013-07-25 21:35:00,
2013-07-25 16:40:00,84.4,72.2,29.94,ENE,72,2.0,11.0,67,0.00,,---,0.32,638.00,VWS V14.01,2013-07-25 21:40:00,
2013-07-25 16:45:00,84.3,71.7,29.94,ENE,65,10.0,13.0,66,0.00,,---,0.32,533.00,VWS V14.01,2013-07-25 21:45:00,
2013-07-25 16:50:00,83.9,71.8,29.94,ENE,65,0.0,13.0,67,0.00,,---,0.32,311.00,VWS V14.01,2013-07-25 21:50:00,
2013-07-25 16:55:00,83.8,71.7,29.94,NE,55,5.0,13.0,67,0.00,,---,0.32,327.00,VWS V14.01,2013-07-25 21:55:00,
2013-07-25 17:00:00,84.0,71.9,29.93,East,92,5.0,13.0,67,0.00,,---,0.32,786.00,VWS V14.01,2013-07-25 22:00:00,
2013-07-25 17:05:00,84.4,71.8,29.93,East,84,5.0,11.0,66,0.00,,---,0.32,738.00,VWS V14.01,2013-07-25 22:05:00,
2013-07-25 17:10:00,84.8,71.7,29.93,ENE,77,8.0,13.0,65,0.00,,---,0.32,631.00,VWS V14.01,2013-07-25 22:10:00,
2013-07-25 17:15:00,85.0,72.4,29.92,East,92,7.0,14.0,66,0.00,,---,0.32,628.00,VWS V14.01,2013-07-25 22:15:00,
2013-07-25 17:20:00,85.3,72.2,29.92,East,89,6.0,14.0,65,0.00,,---,0.32,621.00,VWS V14.01,2013-07-25 22:20:00,
2013-07-25 17:25:00,85.0,72.4,29.93,East,92,0.0,14.0,66,0.00,,---,0.32,610.00,VWS V14.01,2013-07-25 22:25:00,
2013-07-25 17:30:00,85.7,72.6,29.92,East,87,0.0,14.0,65,0.00,,---,0.32,515.00,VWS V14.01,2013-07-25 22:30:00,
2013-07-25 17:35:00,85.9,72.3,29.92,East,101,0.0,11.0,64,0.00,,---,0.32,264.00,VWS V14.01,2013-07-25 22:35:00,
2013-07-25 17:40:00,85.5,72.4,29.92,East,88,0.0,11.0,65,0.00,,---,0.32,149.00,VWS V14.01,2013-07-25 22:40:00,
2013-07-25 17:45:00,85.1,72.0,29.92,East,86,8.0,11.0,65,0.00,,---,0.32,185.00,VWS V14.01,2013-07-25 22:45:00,
2013-07-25 17:50:00,84.7,72.1,29.92,East,90,3.0,11.0,66,0.00,,---,0.32,311.00,VWS V14.01,2013-07-25 22:50:00,
2013-07-25 17:55:00,85.1,72.9,29.92,East,81,0.0,13.0,67,0.00,,---,0.32,656.00,VWS V14.01,2013-07-25 22:55:00,
2013-07-25 18:00:00,85.3,72.7,29.92,East,80,6.0,13.0,66,0.00,,---,0.32,559.00,VWS V14.01,2013-07-25 23:00:00,
2013-07-25 18:05:00,85.6,72.9,29.92,East,80,0.0,9.0,66,0.00,,---,0.32,320.00,VWS V14.01,2013-07-25 23:05:00,
2013-07-25 18:10:00,85.7,72.6,29.92,East,85,0.0,11.0,65,0.00,,---,0.32,283.00,VWS V14.01,2013-07-25 23:10:00,
2013-07-25 18:15:00,85.5,72.8,29.92,East,82,0.0,11.0,66,0.00,,---,0.32,204.00,VWS V14.01,2013-07-25 23:15:00,
2013-07-25 18:20:00,85.2,72.6,29.92,East,86,7.0,11.0,66,0.00,,---,0.32,151.00,VWS V14.01,2013-07-25 23:20:00,
2013-07-25 18:25:00,84.9,72.7,29.91,East,84,2.0,13.0,67,0.00,,---,0.32,141.00,VWS V14.01,2013-07-25 23:25:00,
2013-07-25 18:30:00,84.8,72.6,29.90,East,84,0.0,13.0,67,0.00,,---,0.32,137.00,VWS V14.01,2013-07-25 23:30:00,
2013-07-25 18:35:00,84.7,72.5,29.90,ESE,103,10.0,13.0,67,0.00,,---,0.32,125.00,VWS V14.01,2013-07-25 23:35:00,
2013-07-25 18:40:00,84.6,72.4,29.90,East,83,15.0,15.0,67,0.00,,---,0.32,111.00,VWS V14.01,2013-07-25 23:40:00,
2013-07-25 18:45:00,84.6,72.4,29.89,East,92,9.0,15.0,67,0.00,,---,0.32,100.00,VWS V14.01,2013-07-25 23:45:00,
2013-07-25 18:50:00,84.6,72.4,29.89,East,86,7.0,15.0,67,0.00,,---,0.32,102.00,VWS V14.01,2013-07-25 23:50:00,
2013-07-25 18:55:00,84.7,72.5,29.89,East,83,0.0,15.0,67,0.00,,---,0.32,98.00,VWS V14.01,2013-07-25 23:55:00,
2013-07-25 19:00:00,84.7,72.5,29.89,East,85,3.0,15.0,67,0.00,,---,0.32,100.00,VWS V14.01,2013-07-26 00:00:00,
2013-07-25 19:05:00,84.8,72.6,29.90,East,83,0.0,10.0,67,0.00,,---,0.32,91.00,VWS V14.01,2013-07-26 00:05:00,
2013-07-25 19:10:00,84.8,72.2,29.90,East,92,0.0,10.0,66,0.00,,---,0.32,86.00,VWS V14.01,2013-07-26 00:10:00,
2013-07-25 19:15:00,85.0,72.4,29.90,East,80,0.0,10.0,66,0.00,,---,0.32,81.00,VWS V14.01,2013-07-26 00:15:00,
2013-07-25 19:20:00,85.1,72.9,29.90,SE,133,0.0,10.0,67,0.00,,---,0.32,72.00,VWS V14.01,2013-07-26 00:20:00,
2013-07-25 19:25:00,85.1,72.5,29.90,SSE,151,0.0,10.0,66,0.00,,---,0.32,67.00,VWS V14.01,2013-07-26 00:25:00,
2013-07-25 19:30:00,85.1,72.5,29.90,ESE,114,0.0,10.0,66,0.00,,---,0.32,65.00,VWS V14.01,2013-07-26 00:30:00,
2013-07-25 19:35:00,85.1,72.5,29.90,ESE,115,0.0,1.0,66,0.00,,---,0.32,63.00,VWS V14.01,2013-07-26 00:35:00,
2013-07-25 19:40:00,85.0,72.8,29.90,ESE,113,0.0,1.0,67,0.00,,---,0.32,54.00,VWS V14.01,2013-07-26 00:40:00,
2013-07-25 19:45:00,84.9,72.7,29.90,ESE,113,0.0,3.0,67,0.00,,---,0.32,47.00,VWS V14.01,2013-07-26 00:45:00,
2013-07-25 19:50:00,84.6,72.4,29.90,East,97,0.0,5.0,67,0.00,,---,0.32,40.00,VWS V14.01,2013-07-26 00:50:00,
2013-07-25 19:55:00,84.4,72.7,29.90,East,97,0.0,5.0,68,0.00,,---,0.32,33.00,VWS V14.01,2013-07-26 00:55:00,
2013-07-25 20:00:00,84.3,72.6,29.90,East,97,0.0,5.0,68,0.00,,---,0.32,25.00,VWS V14.01,2013-07-26 01:00:00,
2013-07-25 20:05:00,84.3,73.0,29.91,East,97,0.0,0.0,69,0.00,,---,0.32,12.00,VWS V14.01,2013-07-26 01:05:00,
2013-07-25 20:10:00,84.4,73.1,29.91,East,97,0.0,1.0,69,0.00,,---,0.32,5.00,VWS V14.01,2013-07-26 01:10:00,
2013-07-25 20:15:00,84.3,73.0,29.91,East,97,1.0,2.0,69,0.00,,---,0.32,7.00,VWS V14.01,2013-07-26 01:15:00,
2013-07-25 20:20:00,84.2,73.4,29.91,East,97,0.0,2.0,70,0.00,,---,0.32,5.00,VWS V14.01,2013-07-26 01:20:00,
2013-07-25 20:25:00,84.0,73.2,29.91,East,97,0.0,2.0,70,0.00,,---,0.32,7.00,VWS V14.01,2013-07-26 01:25:00,
2013-07-25 20:30:00,83.9,73.5,29.90,East,97,0.0,2.0,71,0.00,,---,0.32,5.00,VWS V14.01,2013-07-26 01:30:00,
2013-07-25 20:35:00,83.7,73.3,29.90,East,97,0.0,0.0,71,0.00,,---,0.32,0.00,VWS V14.01,2013-07-26 01:35:00,
2013-07-25 20:40:00,83.4,73.4,29.91,East,97,0.0,0.0,72,0.00,,---,0.32,0.00,VWS V14.01,2013-07-26 01:40:00,
2013-07-25 20:45:00,83.1,73.1,29.90,East,97,0.0,2.0,72,0.00,,---,0.32,0.00,VWS V14.01,2013-07-26 01:45:00,
2013-07-25 20:50:00,82.7,73.2,29.90,East,97,0.0,5.0,73,0.00,,---,0.32,0.00,VWS V14.01,2013-07-26 01:50:00,
2013-07-25 20:55:00,82.5,73.4,29.90,East,97,0.0,5.0,74,0.00,,---,0.32,0.00,VWS V14.01,2013-07-26 01:55:00,
2013-07-25 21:00:00,82.5,73.8,29.89,East,97,0.0,5.0,75,0.00,,---,0.32,0.00,VWS V14.01,2013-07-26 02:00:00,
2013-07-25 21:05:00,82.4,73.7,29.90,East,97,0.0,0.0,75,0.00,,---,0.32,0.00,VWS V14.01,2013-07-26 02:05:00,
2013-07-25 21:10:00,82.2,73.5,29.89,East,97,0.0,0.0,75,0.00,,---,0.32,0.00,VWS V14.01,2013-07-26 02:10:00,
2013-07-25 21:15:00,82.0,73.7,29.88,East,97,0.0,0.0,76,0.00,,---,0.32,0.00,VWS V14.01,2013-07-26 02:15:00,
2013-07-25 21:20:00,81.9,73.6,29.88,East,97,0.0,0.0,76,0.00,,---,0.32,0.00,VWS V14.01,2013-07-26 02:20:00,
2013-07-25 21:25:00,81.6,73.7,29.89,East,97,0.0,0.0,77,0.00,,---,0.32,0.00,VWS V14.01,2013-07-26 02:25:00,
2013-07-25 21:30:00,81.6,73.7,29.89,East,97,0.0,0.0,77,0.00,,---,0.32,0.00,VWS V14.01,2013-07-26 02:30:00,
2013-07-25 21:35:00,81.4,73.9,29.89,East,97,0.0,0.0,78,0.00,,---,0.32,0.00,VWS V14.01,2013-07-26 02:35:00,
2013-07-25 21:40:00,81.2,73.7,29.89,East,97,0.0,0.0,78,0.00,,---,0.32,0.00,VWS V14.01,2013-07-26 02:40:00,
2013-07-25 21:45:00,81.0,73.5,29.89,East,97,0.0,0.0,78,0.00,,---,0.32,0.00,VWS V14.01,2013-07-26 02:45:00,
2013-07-25 21:50:00,80.9,73.4,29.89,East,97,0.0,0.0,78,0.00,,---,0.32,0.00,VWS V14.01,2013-07-26 02:50:00,
2013-07-25 21:55:00,80.7,73.6,29.89,East,97,0.0,0.0,79,0.00,,---,0.32,0.00,VWS V14.01,2013-07-26 02:55:00,
2013-07-25 22:00:00,80.5,73.8,29.89,East,97,0.0,0.0,80,0.00,,---,0.32,0.00,VWS V14.01,2013-07-26 03:00:00,
2013-07-25 22:05:00,80.4,74.0,29.89,East,97,0.0,0.0,81,0.00,,---,0.32,0.00,VWS V14.01,2013-07-26 03:05:00,
2013-07-25 22:10:00,80.3,73.9,29.88,East,97,0.0,0.0,81,0.00,,---,0.32,0.00,VWS V14.01,2013-07-26 03:10:00,
2013-07-25 22:15:00,80.3,74.3,29.89,East,97,0.0,0.0,82,0.00,,---,0.32,0.00,VWS V14.01,2013-07-26 03:15:00,
2013-07-25 22:20:00,80.2,74.2,29.89,East,97,0.0,0.0,82,0.00,,---,0.32,0.00,VWS V14.01,2013-07-26 03:20:00,
2013-07-25 22:25:00,80.1,74.1,29.90,East,97,0.0,0.0,82,0.00,,---,0.32,0.00,VWS V14.01,2013-07-26 03:25:00,
2013-07-25 22:30:00,80.0,74.0,29.90,East,97,0.0,0.0,82,0.00,,---,0.32,0.00,VWS V14.01,2013-07-26 03:30:00,
2013-07-25 22:35:00,80.0,74.0,29.90,East,97,0.0,0.0,82,0.00,,---,0.32,0.00,VWS V14.01,2013-07-26 03:35:00,
2013-07-25 22:40:00,79.9,73.9,29.90,East,97,0.0,0.0,82,0.00,,---,0.32,0.00,VWS V14.01,2013-07-26 03:40:00,
2013-07-25 22:45:00,79.9,73.9,29.90,East,97,0.0,0.0,82,0.00,,---,0.32,0.00,VWS V14.01,2013-07-26 03:45:00,
2013-07-25 22:50:00,79.9,74.3,29.91,East,97,0.0,0.0,83,0.00,,---,0.32,0.00,VWS V14.01,2013-07-26 03:50:00,
2013-07-25 22:55:00,79.9,74.3,29.90,East,97,0.0,0.0,83,0.00,,---,0.32,0.00,VWS V14.01,2013-07-26 03:55:00,
2013-07-25 23:00:00,79.9,74.3,29.91,East,97,0.0,0.0,83,0.00,,---,0.32,0.00,VWS V14.01,2013-07-26 04:00:00,
2013-07-25 23:01:00,79.9,74.3,29.91,East,97,0.0,0.0,83,0.00,,---,0.32,0.00,VWS V14.01,2013-07-26 04:01:00,
2013-07-25 23:06:00,79.9,74.3,29.91,East,97,0.0,0.0,83,0.00,,---,0.32,0.00,VWS V14.01,2013-07-26 04:06:00,
2013-07-25 23:11:00,80.0,74.4,29.90,East,97,0.0,0.0,83,0.00,,---,0.32,0.00,VWS V14.01,2013-07-26 04:11:00,
2013-07-25 23:16:00,79.9,74.3,29.90,East,97,0.0,0.0,83,0.00,,---,0.32,0.00,VWS V14.01,2013-07-26 04:16:00,
2013-07-25 23:21:00,79.9,73.9,29.90,East,97,0.0,0.0,82,0.00,,---,0.32,0.00,VWS V14.01,2013-07-26 04:21:00,
2013-07-25 23:26:00,79.9,73.9,29.91,East,97,0.0,0.0,82,0.00,,---,0.32,0.00,VWS V14.01,2013-07-26 04:26:00,
2013-07-25 23:31:00,80.0,74.0,29.90,East,97,0.0,0.0,82,0.00,,---,0.32,0.00,VWS V14.01,2013-07-26 04:31:00,
2013-07-25 23:36:00,80.0,73.7,29.90,East,97,0.0,0.0,81,0.00,,---,0.32,0.00,VWS V14.01,2013-07-26 04:36:00,
2013-07-25 23:41:00,80.0,73.7,29.90,East,97,0.0,0.0,81,0.00,,---,0.32,0.00,VWS V14.01,2013-07-26 04:41:00,
2013-07-25 23:46:00,80.1,73.8,29.91,East,97,0.0,2.0,81,0.00,,---,0.32,0.00,VWS V14.01,2013-07-26 04:46:00,
2013-07-25 23:51:00,80.1,73.4,29.92,East,97,6.0,7.0,80,0.00,,---,0.32,0.00,VWS V14.01,2013-07-26 04:51:00,
2013-07-25 23:56:00,80.3,73.9,29.93,SSE,153,5.0,9.0,81,0.01,,---,0.33,0.00,VWS V14.01,2013-07-26 04:56:00,